EW4557 Weather Reports


Display with metric or nautical units.
time (UTC)temp
F
wind
direction
speed
MPH
gust
MPH
rain 1hr
in
rain 24hr
in
rain mn
in
humidity
%
barometer
mb
20260903185556 97 0 4.0 12.0 0.00 0.00 0.00 24 1017.9
20260903184556 96 0 2.0 6.0 0.00 0.00 0.00 23 1018.1
20260903183556 96 0 4.0 9.0 0.00 0.00 0.00 23 1018.2
20260903182515 95 0 2.0 11.0 0.00 0.00 0.00 23 1018.3
20260903181515 96 0 3.0 8.0 0.00 0.00 0.00 22 1018.9
20260903180556 95 0 4.0 9.0 0.00 0.00 0.00 23 1019.0
20260903174515 94 0 3.0 10.0 0.00 0.00 0.00 23 1019.5
20260903173555 93 0 2.0 5.0 0.00 0.00 0.00 23 1019.4
20260903171515 93 0 2.0 5.0 0.00 0.00 0.00 23 1019.5
20260903170555 92 0 2.0 5.0 0.00 0.00 0.00 23 1019.6
20260903165555 91 0 2.0 8.0 0.00 0.00 0.00 23 1019.6
20260903164515 91 0 3.0 9.0 0.00 0.00 0.00 24 1019.5
20260903163515 89 0 3.0 5.0 0.00 0.00 0.00 25 1019.3
20260903162515 89 0 3.0 9.0 0.00 0.00 0.00 26 1018.7
20260903161555 89 0 4.0 8.0 0.00 0.00 0.00 27 1018.2
20260903160635 88 0 2.0 5.0 0.00 0.00 0.00 28 1018.1
20260903154515 87 0 2.0 6.0 0.00 0.00 0.00 30 1018.2
20260903153555 86 0 3.0 5.0 0.00 0.00 0.00 31 1018.2
20260903151515 86 0 2.0 5.0 0.00 0.00 0.00 34 1018.6
20260903145515 82 0 1.0 3.0 0.00 0.00 0.00 38 1018.8
20260903144555 81 0 0.0 1.0 0.00 0.00 0.00 40 1018.8
20260903143555 79 0 0.0 2.0 0.00 0.00 0.00 44 1018.7
20260903142515 77 0 1.0 3.0 0.00 0.00 0.00 46 1018.6
20260903141515 75 0.0 0.0 0.00 0.00 0.00 49 1018.3
20260903140555 74 0 2.0 3.0 0.00 0.00 0.00 53 1018.3
20260903135515 72 0 2.0 5.0 0.00 0.00 0.00 56 1018.2
20260903134555 69 0 1.0 3.0 0.00 0.00 0.00 60 1018.0
20260903133555 68 0 2.0 4.0 0.00 0.00 0.00 63 1017.9
20260903132635 65 0 0.0 2.0 0.00 0.00 0.00 68 1017.5
20260903131515 64 0.0 0.0 0.00 0.00 0.00 69 1017.2
20260903130515 63 0 0.0 3.0 0.00 0.00 0.00 69 1017.1
20260903125515 62 0.0 0.0 0.00 0.00 0.00 69 1016.8
20260903124515 62 0.0 0.0 0.00 0.00 0.00 68 1016.8
20260903123515 63 0.0 1.0 0.00 0.00 0.00 67 1017.0
20260903122555 63 0 1.0 3.0 0.00 0.00 0.00 66 1016.9
20260903121515 64 0 2.0 3.0 0.00 0.00 0.00 66 1017.0
20260903120555 65 0.0 1.0 0.00 0.00 0.00 64 1017.3
20260903115517 65 0 2.0 6.0 0.00 0.00 0.00 65 1017.2
20260903114517 65 0 0.0 3.0 0.00 0.00 0.00 65 1017.0
20260903113516 64 0 2.0 9.0 0.00 0.00 0.00 67 1016.8
20260903112517 63 0 1.0 3.0 0.00 0.00 0.00 67 1016.5
20260903111557 64 0.0 0.0 0.00 0.00 0.00 65 1016.6
20260903110517 64 0.0 0.0 0.00 0.00 0.00 64 1016.7
20260903105516 64 0.0 0.0 0.00 0.00 0.00 64 1016.8
20260903104516 65 0.0 0.0 0.00 0.00 0.00 65 1017.0
20260903103516 64 0.0 0.0 0.00 0.00 0.00 66 1017.1
20260903102557 63 0.0 2.0 0.00 0.00 0.00 64 1016.8
20260903101516 63 0 0.0 1.0 0.00 0.00 0.00 64 1016.7
20260903095557 64 0.0 0.0 0.00 0.00 0.00 61 1016.9
20260903094556 64 0.0 0.0 0.00 0.00 0.00 61 1016.9
20260903093556 65 0.0 0.0 0.00 0.00 0.00 60 1016.9
20260903092516 65 0.0 0.0 0.00 0.00 0.00 59 1016.8
20260903091516 65 0.0 0.0 0.00 0.00 0.00 60 1016.9
20260903090556 65 0 0.0 4.0 0.00 0.00 0.00 60 1016.9
20260903085556 65 0 1.0 3.0 0.00 0.00 0.00 59 1016.9
20260903084516 66 0.0 0.0 0.00 0.00 0.00 57 1016.9
20260903083556 67 0.0 0.0 0.00 0.00 0.00 56 1017.0
20260903082556 67 0.0 0.0 0.00 0.00 0.00 54 1016.7
20260903081516 68 0.0 2.0 0.00 0.00 0.00 54 1017.1
20260903080516 70 0 0.0 2.0 0.00 0.00 0.00 52 1017.2
20260903075516 71 0.0 0.0 0.00 0.00 0.00 51 1017.4
20260903074516 72 0.0 0.0 0.00 0.00 0.00 49 1017.5
20260903073516 73 0.0 0.0 0.00 0.00 0.00 47 1017.5
20260903072516 74 0.0 0.0 0.00 0.00 0.00 46 1017.7
20260903071556 76 0.0 0.0 0.00 0.00 0.00 45 1018.0
20260903070516 77 0.0 2.0 0.00 0.00 0.00 44 1018.1
20260903065516 78 0 1.0 3.0 0.00 0.00 0.00 43 1018.1
20260903063556 79 0 1.0 3.0 0.00 0.00 0.00 41 1018.4
20260903062516 80 0.0 2.0 0.00 0.00 0.00 40 1018.4
20260903061636 81 0 1.0 3.0 0.00 0.00 0.00 40 1018.6
20260903060516 81 0 1.0 6.0 0.00 0.00 0.00 39 1018.6
20260903055515 82 0 1.0 4.0 0.00 0.00 0.00 38 1018.5
20260903054555 82 0 3.0 6.0 0.00 0.00 0.00 38 1018.3
20260903053515 82 0 2.0 6.0 0.00 0.00 0.00 37 1018.3
20260903052515 83 0 2.0 6.0 0.00 0.00 0.00 37 1018.2
20260903051515 84 0 3.0 10.0 0.00 0.00 0.00 36 1018.4
20260903050635 84 0 3.0 8.0 0.00 0.00 0.00 36 1018.4
20260903044555 85 0 6.0 11.0 0.00 0.00 0.00 35 1018.0
20260903043635 85 0 6.0 10.0 0.00 0.00 0.00 36 1018.0
20260903041515 75 0 1.0 3.0 0.00 0.00 0.00 48 1017.0
20260903040555 74 0 0.0 2.0 0.00 0.00 0.00 49 1016.6
20260903035555 74 0 1.0 2.0 0.00 0.00 0.00 49 1016.6
20260903033515 76 0.0 0.0 0.00 0.00 0.00 45 1016.4
20260903032635 77 0.0 0.0 0.00 0.00 0.00 44 1016.3
20260903031555 79 0.0 0.0 0.00 0.00 0.00 43 1016.4
20260903030515 80 0.0 0.0 0.00 0.00 0.00 41 1016.6
20260903025555 82 0.0 0.0 0.00 0.00 0.00 40 1016.4
20260903024555 83 0.0 0.0 0.00 0.00 0.00 38 1016.3
20260903023557 84 0.0 0.0 0.00 0.00 0.00 38 1016.2
20260903022517 85 0 0.0 1.0 0.00 0.00 0.00 37 1016.1
20260903021517 85 0 0.0 2.0 0.00 0.00 0.00 37 1015.8
20260903015637 87 0 1.0 3.0 0.00 0.00 0.00 35 1015.3
20260903014557 88 0 2.0 5.0 0.00 0.00 0.00 34 1015.1
20260903013556 88 0 2.0 5.0 0.00 0.00 0.00 34 1014.8
20260903012516 89 0 3.0 12.0 0.00 0.00 0.00 33 1014.8
20260903011516 90 0 3.0 9.0 0.00 0.00 0.00 31 1014.8
20260903010556 91 0 2.0 5.0 0.00 0.01 0.00 31 1014.8
20260903005556 91 0 2.0 10.0 0.00 0.01 0.00 30 1014.8
20260903004516 92 0 3.0 6.0 0.00 0.01 0.00 29 1014.7
20260903003556 93 0 3.0 8.0 0.00 0.01 0.00 28 1015.0
20260903002556 94 0 3.0 5.0 0.00 0.01 0.00 27 1015.0
20260903001556 95 0 3.0 9.0 0.00 0.01 0.00 26 1015.3
20260903000556 95 0 2.0 9.0 0.00 0.01 0.00 26 1015.5
20260902235623 95 0 1.0 6.0 0.00 0.01 0.00 26 1015.4
20260902234556 95 0 2.0 16.0 0.00 0.01 0.00 26 1015.4
20260902232516 96 0 5.0 13.0 0.00 0.01 0.00 24 1015.6
20260902231556 96 0 3.0 8.0 0.00 0.01 0.00 24 1015.9
20260902225516 96 0 4.0 13.0 0.00 0.01 0.00 24 1016.2
20260902224636 96 0 4.0 10.0 0.00 0.02 0.00 25 1016.3
20260902223556 96 0 5.0 15.0 0.00 0.03 0.00 26 1016.4
20260902222556 96 0 8.0 16.0 0.00 0.05 0.00 26 1016.4
20260902221556 95 0 4.0 11.0 0.00 0.06 0.00 26 1016.1
20260902220636 95 0 4.0 14.0 0.00 0.06 0.00 25 1016.4
20260902215516 95 0 5.0 11.0 0.00 0.06 0.00 26 1016.5
20260902214516 95 0 3.0 9.0 0.00 0.06 0.00 26 1016.7
20260902213516 97 0 6.0 13.0 0.00 0.06 0.00 24 1017.0
20260902212636 96 0 3.0 10.0 0.00 0.06 0.00 26 1017.0
20260902211516 95 0 4.0 11.0 0.00 0.06 0.00 26 1017.1
20260902210636 96 0 6.0 13.0 0.00 0.06 0.00 25 1017.4
20260902205556 96 0 4.0 9.0 0.00 0.06 0.00 26 1017.7
20260902204636 95 0 3.0 12.0 0.00 0.06 0.00 26 1017.6
20260902203516 95 0 2.0 5.0 0.00 0.06 0.00 27 1017.8
20260902202516 94 0 3.0 13.0 0.00 0.06 0.00 27 1017.9
20260902201516 95 0 4.0 12.0 0.00 0.06 0.00 27 1018.4
20260902195556 94 0 5.0 12.0 0.00 0.06 0.00 27 1018.7
20260902194516 94 0 2.0 14.0 0.00 0.06 0.00 30 1018.8
20260902193556 93 0 6.0 13.0 0.00 0.06 0.00 30 1019.0